Lapse_Rate
5.5 5.4 5.4 5.3 5.2 5.3 5.4 5.6 5.7 5.8 5.9 5.9 5.9 5.9 5.9 6.0 6.0 5.7 5.7 5.8 5.8 5.5 5.2 5.1 5.0 4.9 4.8 4.7 4.8 4.9 4.8 4.8 4.8 4.8 4.8 4.8 4.8 4.8 5.0 5.2 5.3 5.3 5.4 5.3 5.7 5.6 5.6 5.7 5.8
5.6 5.4 5.3 5.4 5.3 5.3 5.3 5.5 5.6 5.8 5.8 6.0 6.1 6.1 6.1 6.1 6.1 6.0 6.0 5.9 5.8 5.7 5.5 5.3 5.2 5.0 5.0 4.9 4.9 4.9 5.0 4.9 4.8 4.8 4.9 5.0 4.9 5.0 5.2 5.3 5.3 5.4 5.4 5.6 5.6 5.9 5.9 5.9 6.0
5.6 5.5 5.3 5.4 5.5 5.6 5.3 5.6 5.7 5.8 5.9 6.1 6.2 6.3 6.3 6.4 6.4 6.2 6.2 6.1 5.9 5.8 5.6 5.5 5.3 5.2 5.1 5.1 5.1 5.0 5.1 4.9 4.9 4.9 4.9 5.0 5.1 5.2 5.4 5.4 5.5 5.6 5.7 5.8 5.9 6.0 6.2 6.2 6.4
5.7 5.5 5.3 5.4 5.6 5.5 5.3 5.6 5.9 5.9 6.0 6.1 6.2 6.3 6.4 6.5 6.5 6.4 6.4 6.2 6.1 6.0 5.9 5.7 5.5 5.4 5.3 5.1 5.1 5.1 5.0 5.0 5.0 5.1 5.2 5.2 5.3 5.5 5.5 5.6 5.6 5.7 5.8 6.0 6.1 6.2 6.3 6.3 6.3
5.5 5.4 5.3 5.5 5.7 5.6 5.5 5.8 6.0 6.0 6.1 6.0 6.1 6.2 6.3 6.5 6.7 6.7 6.6 6.4 6.2 6.1 6.1 6.0 5.9 5.6 5.5 5.4 5.3 5.2 5.1 5.0 5.0 5.1 5.2 5.3 5.4 5.6 5.7 5.8 5.8 5.8 5.9 6.0 6.2 6.3 6.2 6.2 6.2
5.3 5.2 5.2 5.3 5.4 5.4 5.5 5.8 6.0 6.1 6.0 6.1 6.2 6.2 6.1 6.4 6.6 6.8 6.8 6.7 6.5 6.3 6.2 6.1 6.1 5.9 5.7 5.6 5.4 5.4 5.2 5.2 5.1 5.2 5.4 5.5 5.6 5.7 5.8 5.8 5.8 6.0 6.0 6.2 6.2 6.2 6.1 6.1 6.3
5.1 5.1 5.0 5.0 5.2 5.3 5.6 5.9 6.0 6.0 6.1 6.1 6.1 6.1 6.1 6.2 6.5 6.8 6.9 6.8 6.7 6.6 6.5 6.4 6.2 6.1 6.0 5.9 5.7 5.6 5.5 5.4 5.3 5.4 5.5 5.7 5.8 5.9 5.9 5.9 6.0 6.2 6.3 6.3 6.3 6.2 6.2 6.3 6.2
5.1 5.0 4.8 5.1 5.2 5.5 5.9 6.1 6.2 6.1 6.2 6.1 6.0 5.9 6.1 6.2 6.6 6.9 7.0 7.0 6.9 6.8 6.8 6.6 6.5 6.3 6.1 6.1 6.0 5.8 5.8 5.7 5.6 5.6 5.7 5.9 6.0 6.1 6.1 6.0 6.1 6.2 6.3 6.3 6.3 6.2 6.3 6.2 6.1
5.2 5.2 5.0 5.1 5.3 5.3 5.6 5.8 5.8 5.9 5.9 5.9 5.7 5.8 6.0 6.2 6.5 7.0 7.1 7.0 7.0 6.9 6.9 6.8 6.7 6.6 6.4 6.3 6.2 6.1 6.0 6.0 6.0 6.0 6.0 6.0 6.1 6.1 6.1 6.1 6.2 6.1 6.3 6.3 6.3 6.3 6.2 6.1 6.1
5.1 5.1 5.1 5.2 5.3 5.4 5.5 5.6 5.8 5.9 6.0 6.1 6.1 6.1 6.2 6.2 6.6 7.1 7.3 7.2 7.1 7.0 6.9 7.0 7.0 6.9 6.8 6.7 6.6 6.5 6.4 6.4 6.4 6.4 6.4 6.2 6.2 6.2 6.3 6.2 6.3 6.3 6.4 6.5 6.4 6.3 6.2 6.1 6.0
5.1 5.1 5.1 5.3 5.5 5.6 5.7 5.9 6.0 6.1 6.1 6.1 6.2 6.2 6.6 6.5 6.9 7.1 7.3 7.4 7.4 7.5 7.4 7.3 7.2 7.1 7.1 7.0 6.9 6.9 6.8 6.7 6.7 6.7 6.6 6.4 6.3 6.4 6.4 6.4 6.5 6.5 6.5 6.5 6.5 6.4 6.3 6.1 6.0
5.4 5.3 5.3 5.3 5.5 5.7 5.8 5.9 6.1 6.0 5.8 6.1 6.2 6.3 6.8 7.0 7.2 7.1 7.1 7.3 7.4 7.4 7.5 7.5 7.4 7.3 7.3 7.2 7.2 7.1 7.1 7.0 7.0 7.0 6.9 6.8 6.5 6.6 6.5 6.5 6.5 6.6 6.6 6.5 6.5 6.5 6.4 6.2 6.1
5.7 5.7 5.6 5.7 5.6 5.7 5.8 5.9 6.0 5.9 6.2 6.3 6.4 6.8 7.1 7.2 7.2 7.2 6.9 6.8 7.1 7.3 7.4 7.4 7.4 7.3 7.4 7.3 7.3 7.3 7.3 7.3 7.2 7.2 7.1 7.0 7.0 6.9 6.7 6.7 6.6 6.6 6.6 6.6 6.6 6.6 6.5 6.3 6.2
5.9 5.8 5.8 5.9 6.0 6.1 6.1 6.0 5.9 5.9 6.4 6.4 6.7 6.8 7.3 7.4 7.3 7.3 6.9 6.5 6.6 6.7 7.1 7.2 7.2 7.2 7.3 7.2 7.2 7.2 7.3 7.3 7.3 7.3 7.4 7.2 7.1 7.1 7.0 6.8 6.7 6.7 6.7 6.6 6.6 6.6 6.5 6.3 6.2
5.9 5.8 5.9 6.0 6.1 6.2 6.2 6.1 6.0 5.9 6.3 6.5 6.6 7.0 7.4 7.4 7.4 7.2 6.9 6.7 6.6 6.7 6.7 6.8 7.1 7.2 7.1 7.1 7.1 7.2 7.3 7.2 7.3 7.3 7.4 7.3 7.2 7.2 7.1 7.0 6.8 6.7 6.6 6.6 6.6 6.6 6.6 6.5 6.3
5.9 5.9 5.9 5.9 6.0 6.1 6.1 6.1 6.0 6.0 6.3 6.5 6.6 6.9 7.3 7.4 7.5 7.4 7.2 6.8 6.7 6.7 6.5 6.7 6.6 6.8 7.0 7.0 7.1 7.1 7.3 7.3 7.3 7.3 7.4 7.4 7.3 7.2 7.0 6.9 6.8 6.6 6.6 6.5 6.6 6.5 6.5 6.4 6.3
5.8 5.8 5.8 5.8 5.8 5.8 5.9 5.8 5.9 6.1 6.1 6.3 6.5 6.7 7.1 7.3 7.5 7.5 7.4 7.3 7.0 6.8 6.8 6.7 6.7 6.6 6.8 7.0 7.1 7.1 7.2 7.3 7.3 7.4 7.3 7.2 7.2 7.1 7.0 6.9 6.8 6.5 6.4 6.4 6.5 6.5 6.4 6.4 6.3
5.7 5.6 5.7 5.7 5.6 5.6 5.7 5.7 5.8 5.9 6.0 6.2 6.6 6.8 6.9 7.2 7.5 7.4 7.2 7.3 7.2 6.9 6.7 6.6 6.6 6.5 6.6 6.7 6.9 7.0 7.1 7.1 7.2 7.2 7.1 7.1 7.0 6.9 6.8 6.8 6.7 6.4 6.3 6.3 6.4 6.4 6.3 6.3 6.2
5.6 5.6 5.6 5.5 5.5 5.4 5.6 5.7 5.5 5.6 5.7 6.1 6.5 6.8 6.7 6.9 7.3 7.3 7.2 7.1 7.1 6.9 6.7 6.5 6.5 6.3 6.4 6.4 6.6 6.8 7.0 7.0 7.1 7.2 7.2 7.3 7.2 7.1 6.9 6.8 6.7 6.4 6.2 6.2 6.2 6.2 6.2 6.1 6.1
5.6 5.6 5.5 5.4 5.4 5.4 5.4 5.4 5.4 5.5 5.8 6.0 6.1 6.3 6.4 6.4 6.6 6.9 6.8 6.9 6.9 6.9 6.7 6.6 6.4 6.1 5.9 6.0 6.1 6.4 6.6 6.7 6.8 7.0 7.1 7.1 6.9 6.8 6.7 6.7 6.6 6.4 6.2 6.1 6.0 6.0 6.0 6.0 6.0
5.6 5.6 5.5 5.4 5.3 5.3 5.1 5.1 5.0 5.2 5.2 5.4 5.7 5.9 6.1 6.1 6.2 6.3 6.5 6.6 6.7 6.8 6.7 6.6 6.4 6.1 5.7 5.6 5.8 5.9 6.1 6.2 6.4 6.7 6.8 6.8 6.8 6.9 6.9 6.7 6.5 6.3 6.2 6.0 6.0 5.8 5.8 5.8 5.8
5.8 5.7 5.6 5.5 5.3 5.3 5.1 5.0 4.8 4.7 5.0 5.4 5.5 5.6 5.7 5.8 6.0 6.1 6.3 6.5 6.6 6.6 6.6 6.4 6.2 6.0 5.9 5.8 5.8 5.8 5.9 6.0 6.0 6.3 6.6 6.7 6.8 6.8 6.8 6.5 6.4 6.4 6.3 6.0 5.7 5.6 5.6 5.6 5.5
5.9 5.8 5.7 5.6 5.5 5.3 5.4 5.2 4.7 4.7 4.7 5.1 5.3 5.4 5.5 5.7 5.8 6.0 6.2 6.2 6.4 6.5 6.5 6.4 6.2 6.0 5.7 5.6 5.7 5.8 5.8 5.8 5.8 6.0 6.3 6.6 6.7 6.7 6.7 6.5 6.4 6.3 6.3 6.0 5.8 5.6 5.4 5.4 5.3
5.9 5.9 5.8 5.5 5.3 5.0 5.2 5.3 4.6 4.7 4.9 4.8 4.9 5.1 5.4 5.5 5.7 5.9 6.0 6.2 6.2 6.2 6.3 6.2 6.0 5.9 5.8 5.6 5.6 5.7 5.9 5.9 5.9 5.9 5.9 6.2 6.4 6.6 6.6 6.5 6.5 6.4 6.4 6.2 6.0 5.8 5.8 5.6 5.4
6.1 6.2 5.9 5.7 5.4 5.7 5.4 5.2 4.7 4.7 4.7 4.9 5.0 5.1 5.3 5.5 5.7 5.9 5.9 6.0 6.0 6.2 6.3 6.4 6.3 6.1 6.0 5.8 5.6 5.7 5.6 5.7 5.8 5.8 5.9 5.9 6.0 6.3 6.5 6.7 6.7 6.7 6.7 6.7 6.5 6.4 6.2 6.0 5.8
6.2 6.3 6.4 6.1 5.7 5.5 5.5 5.0 4.6 4.8 4.8 4.7 4.9 5.2 5.3 5.6 5.9 6.0 6.1 6.1 6.1 6.1 6.1 6.2 6.3 6.2 6.1 6.1 5.9 5.8 5.7 5.6 5.5 5.4 5.5 5.5 5.6 5.7 5.8 6.1 6.5 6.7 6.8 6.9 6.8 6.7 6.6 6.4 6.2
6.1 6.3 6.3 6.2 5.4 5.2 5.1 4.4 4.4 4.5 4.6 4.8 5.0 5.1 5.2 5.5 5.6 5.8 6.0 6.1 6.1 6.1 6.1 6.2 6.2 6.2 6.2 6.2 6.1 5.9 5.8 5.7 5.6 5.6 5.5 5.5 5.6 5.8 5.9 5.8 6.0 6.2 6.4 6.4 6.6 6.9 6.8 6.8 6.7
6.2 6.2 6.3 6.4 6.0 5.8 4.9 5.0 5.0 4.9 4.8 4.9 4.9 5.1 5.4 5.7 5.7 5.6 5.8 5.9 6.0 6.1 6.2 6.1 6.0 6.0 6.0 6.0 6.0 5.9 5.8 5.7 5.5 5.5 5.5 5.5 5.5 5.6 5.8 5.8 5.8 6.0 6.2 6.2 6.2 6.3 6.4 6.5 6.7
6.1 6.2 6.3 6.5 6.3 6.1 5.7 5.2 5.4 4.9 4.8 4.9 5.0 5.1 5.3 5.4 5.6 5.7 5.7 5.8 5.8 5.8 5.6 5.6 5.7 5.8 5.9 5.8 5.7 5.6 5.5 5.5 5.4 5.3 5.3 5.3 5.3 5.3 5.3 5.5 5.7 5.7 5.7 6.0 6.2 6.2 6.2 6.3 6.4
6.0 6.0 6.2 6.1 5.8 5.7 5.5 5.3 5.7 5.1 5.0 4.9 4.9 5.0 5.2 5.4 5.4 5.5 5.6 5.6 5.7 5.6 5.6 5.5 5.4 5.5 5.6 5.7 5.8 5.6 5.3 5.2 5.2 5.1 5.0 4.9 5.0 5.0 5.1 5.1 5.3 5.5 5.5 5.5 5.7 6.0 6.2 6.1 6.2
Wind_Speed
3 4 3 3 2 2 0 1 2 0 1 1 2 2 1 2 1 2 2 8 6 12 12 14 16 13 13 11 10 12 12 14 13 10 10 11 12 15 16 15 16 14 16 17 21 20 17 15 16
2 2 4 2 3 2 1 3 2 1 3 5 3 1 2 2 1 3 8 7 11 16 11 9 15 12 12 14 10 12 13 12 12 10 12 11 12 13 13 16 15 12 15 17 17 19 15 17 14
3 4 3 3 2 3 1 2 1 2 5 1 2 3 1 1 1 7 1 11 14 14 10 9 16 12 13 13 9 10 11 9 10 10 12 11 11 13 13 13 13 13 13 16 14 13 16 14 14
3 3 3 3 2 2 2 3 0 5 1 1 2 3 1 2 1 5 8 14 14 13 10 11 15 13 13 16 13 12 10 11 10 10 10 11 11 11 12 13 12 12 12 12 12 12 13 15 13
4 3 3 3 2 3 3 4 3 2 2 2 0 1 1 2 2 7 13 12 14 11 10 10 13 14 14 14 12 11 10 10 8 10 11 9 9 9 10 11 10 10 10 10 10 10 10 11 12
3 2 3 1 2 4 5 3 2 1 1 2 2 3 1 2 5 9 12 14 16 11 9 6 13 13 11 11 13 12 9 10 11 9 9 7 8 8 8 8 8 8 8 8 8 8 8 9 10
4 3 2 2 3 3 3 2 3 3 3 1 4 2 2 3 5 9 11 12 13 12 8 7 12 13 13 11 12 10 11 10 9 7 7 6 6 7 6 7 7 7 7 7 6 6 7 7 9
4 3 2 0 1 1 4 1 1 1 2 1 0 2 1 3 11 10 8 9 10 10 9 6 8 10 11 14 12 10 9 8 7 7 8 6 6 6 6 7 6 5 5 5 5 5 6 5 6
2 3 2 1 2 3 3 2 1 1 4 1 1 1 2 10 13 11 8 6 8 7 8 6 8 9 10 11 9 10 11 9 8 6 7 7 5 4 5 5 4 3 3 3 3 4 4 5 5
3 2 4 2 1 2 3 3 2 1 2 1 2 3 6 12 14 15 13 12 12 12 9 7 8 7 10 7 8 9 5 9 8 7 6 5 3 2 2 3 4 7 3 3 4 4 4 4 2
1 2 2 1 2 1 3 1 1 1 2 3 2 3 10 10 13 14 14 14 16 14 10 9 9 9 11 8 8 6 6 7 8 8 5 4 2 1 1 2 3 3 4 2 3 3 2 2 1
1 1 2 3 2 3 2 3 3 1 4 5 4 5 10 14 15 15 14 14 13 13 14 11 12 10 10 9 8 7 8 8 7 7 6 4 3 2 2 2 3 2 2 2 2 2 2 2 2
1 2 3 4 7 6 3 1 1 5 10 10 3 4 12 13 13 12 12 11 12 13 14 13 12 11 11 10 9 8 9 9 8 7 7 6 5 4 3 3 2 2 1 2 2 2 2 3 3
1 2 5 2 3 2 1 4 3 8 19 10 3 3 5 9 10 10 13 14 14 14 15 14 13 14 13 11 11 10 9 9 8 7 8 8 6 5 4 3 3 3 3 3 3 2 2 4 4
0 3 3 6 5 2 3 7 7 11 11 13 13 10 8 8 9 16 12 14 15 14 14 15 14 15 13 12 12 10 10 9 9 9 9 9 8 7 6 4 4 3 3 4 3 3 3 4 4
4 4 3 5 8 4 1 3 9 13 12 15 15 14 13 11 10 11 11 12 12 12 14 13 11 13 13 12 12 11 11 10 10 9 8 10 10 10 7 6 5 3 3 4 4 2 2 3 3
6 2 3 5 5 3 6 3 10 12 12 14 14 15 14 14 13 13 11 12 12 14 13 14 14 14 14 13 12 11 11 11 11 10 10 10 11 11 9 8 6 4 4 5 3 2 2 3 3
1 1 1 2 5 7 7 6 9 13 14 13 14 15 15 16 17 16 15 9 12 13 14 14 13 13 12 8 8 7 7 9 9 10 11 11 11 11 10 8 7 5 4 3 3 3 2 3 4
4 3 1 2 1 5 5 8 11 11 17 17 16 17 17 16 15 16 16 14 6 10 12 13 14 14 10 6 6 5 7 6 6 11 13 12 11 11 11 8 7 7 5 5 4 2 3 3 2
2 1 2 2 3 4 4 9 9 13 11 12 14 17 18 19 20 20 20 17 12 5 9 11 12 12 11 8 5 3 3 4 6 8 12 13 12 12 11 10 7 8 5 6 5 5 2 2 2
1 2 2 1 2 4 4 3 4 5 12 14 16 13 17 18 19 21 21 20 16 11 4 8 9 10 10 9 5 3 2 1 2 5 5 11 13 13 14 13 10 9 7 6 6 6 7 4 2
1 2 2 2 2 2 1 1 1 4 12 15 15 16 16 18 19 19 20 21 19 16 9 1 5 7 8 9 8 8 6 5 2 2 3 4 10 13 14 14 13 12 9 8 7 6 7 5 6
3 2 2 1 2 1 1 2 1 2 9 11 13 14 16 16 17 19 20 19 20 17 15 10 6 4 3 6 7 6 6 4 2 2 4 5 7 12 13 13 13 11 9 8 9 8 9 7 5
5 4 5 3 2 0 2 2 0 2 1 4 9 13 14 15 17 18 18 18 18 17 16 15 15 12 8 1 2 5 7 7 6 5 5 4 4 5 10 12 12 13 11 10 9 10 10 9 8
3 4 2 0 0 2 1 3 2 3 5 6 7 10 12 14 15 17 19 17 17 18 17 14 16 16 15 13 8 5 5 6 7 7 6 7 5 5 7 7 9 8 13 13 12 9 10 10 9
1 3 3 3 1 1 1 3 2 5 6 6 7 8 11 14 13 15 15 14 15 16 16 16 16 16 15 14 13 12 10 4 4 5 5 6 6 7 7 7 9 11 13 12 11 8 9 10 9
0 1 1 4 1 0 3 3 2 5 6 7 8 10 11 12 13 14 15 15 15 15 16 15 15 15 15 14 11 12 11 11 9 9 6 5 6 6 8 8 8 9 10 10 8 8 10 10 10
1 3 1 2 2 3 2 3 3 9 8 6 6 7 8 9 11 12 12 13 13 13 13 14 14 14 13 13 11 9 11 11 10 9 10 10 8 7 6 6 7 8 8 8 9 8 9 10 9
4 2 4 2 1 2 1 2 2 4 9 8 5 5 6 8 9 9 10 10 10 12 13 13 14 14 14 13 11 11 10 10 10 10 10 10 9 10 9 7 6 6 7 7 7 9 10 11 11
3 3 3 2 1 1 1 2 2 2 7 8 6 5 5 5 6 7 8 10 11 12 12 13 12 13 12 11 10 10 10 10 11 11 11 10 10 9 10 9 8 8 7 6 8 9 8 10 11
Wind_Direction
18 59 81 41 71 47 230 253 305 124 94 2 53 130 130 54 136 14 339 173 166 163 179 158 136 134 150 122 112 127 117 103 106 83 92 88 71 76 68 70 70 74 56 59 63 63 58 73 74
47 95 50 85 88 108 260 286 258 94 116 131 88 45 42 54 56 94 124 200 170 163 171 168 136 138 140 148 131 119 112 95 96 101 100 88 81 78 76 70 76 73 63 67 68 58 63 80 78
105 43 77 84 96 149 126 256 284 78 143 61 95 50 64 33 108 162 184 155 160 163 165 157 136 146 146 142 141 122 102 119 121 96 92 92 92 80 84 81 79 82 68 75 71 63 62 77 78
55 26 56 77 133 229 224 321 199 130 156 92 116 73 123 309 213 180 144 151 156 160 166 169 154 143 141 125 128 115 128 119 100 111 101 92 77 88 79 83 82 77 92 88 77 65 59 63 82
41 59 64 73 299 276 273 300 171 123 109 85 132 91 11 71 42 142 147 153 158 160 172 183 164 153 143 132 126 141 141 124 119 103 86 93 98 86 78 80 82 83 84 91 88 81 74 73 76
52 83 69 94 313 296 298 312 179 103 75 134 78 129 134 33 143 155 152 157 161 163 170 207 158 149 144 157 143 139 138 132 110 99 99 96 88 92 93 92 90 85 84 81 81 83 82 79 80
104 77 137 166 332 350 332 14 169 157 145 179 140 71 113 177 156 160 157 157 161 165 165 148 158 159 157 160 148 151 143 123 124 116 117 110 106 99 97 98 93 88 80 83 91 86 85 81 77
102 93 114 203 31 10 339 256 299 161 144 95 335 41 81 158 147 147 152 162 167 169 169 157 167 166 159 144 156 152 153 144 147 137 129 117 89 87 88 63 84 78 77 80 81 92 92 90 83
123 69 126 147 90 311 340 42 53 120 114 104 121 50 355 132 138 144 149 165 177 185 183 170 167 172 158 158 158 162 148 155 153 145 127 99 95 68 49 64 66 73 72 73 83 93 94 91 72
71 90 197 226 236 291 321 42 328 98 62 202 197 92 115 146 159 166 174 180 188 191 192 188 175 180 158 160 160 156 134 140 132 114 112 115 109 85 46 19 11 12 25 49 47 56 60 63 72
117 141 210 253 241 287 332 46 358 104 17 230 286 161 156 168 177 182 186 189 191 193 195 193 186 176 165 165 155 151 133 141 144 145 145 135 134 130 45 330 349 348 4 5 358 2 17 18 67
48 165 220 300 38 348 315 339 2 350 23 335 306 154 172 182 192 195 196 193 192 194 198 195 192 181 178 167 172 164 155 159 159 163 164 172 187 212 235 284 310 307 337 327 317 315 322 300 260
94 329 317 311 305 285 319 357 296 20 353 334 344 202 184 192 202 206 208 207 197 200 200 201 193 192 186 176 173 171 173 175 176 175 181 186 199 220 228 262 248 265 278 280 275 288 287 276 257
235 265 283 309 330 324 35 23 37 352 332 331 328 258 249 236 214 209 209 207 204 204 203 199 201 199 192 193 188 187 185 187 189 192 196 200 205 214 225 246 239 256 249 255 258 260 266 269 267
306 31 19 22 342 52 140 36 19 344 2 25 7 346 303 236 215 228 224 217 205 207 203 199 199 198 196 200 201 201 199 196 199 204 204 208 212 216 223 237 245 260 243 242 234 237 250 265 269
42 51 43 346 0 358 86 89 8 358 23 23 14 5 356 331 288 272 249 228 210 205 203 202 198 198 200 204 204 207 207 208 214 211 211 217 219 218 221 232 242 239 226 239 233 237 259 268 267
14 102 20 341 32 311 40 80 1 7 33 27 17 12 7 5 12 351 306 244 209 202 202 201 198 198 199 204 207 210 213 217 223 220 216 220 222 219 223 231 233 229 227 227 231 227 247 284 273
169 62 344 277 341 45 71 58 15 18 31 24 19 17 15 10 4 350 348 289 219 200 200 202 197 199 195 192 198 207 219 228 227 228 226 223 226 222 223 229 230 222 227 230 219 237 216 264 281
131 122 228 267 292 85 77 68 34 17 34 23 18 17 15 13 357 6 7 6 243 204 201 200 194 195 179 175 192 211 218 219 227 227 229 226 227 224 222 225 221 214 223 229 215 218 242 257 249
105 97 280 288 353 104 125 89 67 39 34 26 18 18 13 11 14 12 13 15 11 279 215 203 203 191 192 193 190 183 185 218 227 226 228 228 228 227 224 224 221 214 217 218 211 204 200 244 226
205 174 221 160 36 42 125 85 55 50 43 32 28 22 22 18 16 15 17 16 14 9 266 213 208 194 195 191 143 122 129 162 195 224 228 224 224 226 223 226 225 220 216 223 212 209 211 236 201
341 196 128 125 84 203 7 215 86 69 43 34 22 21 20 17 20 23 22 22 20 16 15 179 186 187 189 176 196 204 219 229 230 234 241 250 240 236 227 226 224 224 218 224 223 212 218 209 233
177 90 84 72 107 102 263 144 166 334 39 23 21 21 23 23 25 24 26 28 30 27 32 36 56 95 156 190 209 217 234 246 251 230 245 233 231 229 236 236 233 230 226 234 229 219 215 215 233
142 82 55 70 94 246 287 167 280 6 58 45 30 29 25 24 27 32 31 31 32 32 37 39 47 38 32 62 224 240 250 254 259 260 262 258 259 256 241 232 236 245 241 235 231 228 226 220 224
77 64 337 357 52 217 316 101 49 57 68 81 60 39 29 29 32 32 31 30 30 29 31 37 42 43 42 44 30 348 299 285 281 288 286 283 274 257 255 236 241 242 241 240 239 232 229 224 224
53 153 161 253 212 261 342 185 145 118 100 77 62 46 41 35 32 33 31 32 32 32 31 32 37 39 36 39 38 39 37 10 330 312 299 289 282 280 276 252 242 242 241 242 237 235 237 230 229
125 14 198 103 47 135 132 82 92 120 99 86 70 58 43 33 29 29 30 30 30 30 31 32 34 35 32 29 29 34 36 40 39 34 20 341 311 295 284 268 258 254 247 239 230 233 236 231 235
116 151 23 21 239 256 222 201 177 172 153 122 88 70 52 44 40 34 31 27 28 28 26 29 31 32 26 26 28 28 28 28 26 29 26 19 13 356 321 299 278 269 260 249 233 237 240 232 234
355 27 40 112 141 239 258 198 359 195 166 147 125 88 59 44 38 34 30 25 27 28 27 25 26 25 22 19 17 21 20 19 23 23 17 13 11 11 11 355 323 295 280 271 252 244 243 237 244
91 99 89 127 267 64 320 216 353 101 141 140 133 101 64 41 24 21 20 28 30 26 21 21 18 19 14 9 11 14 14 13 16 15 10 8 7 7 7 7 6 354 325 293 266 266 259 250 249